Lapse_Rate
3.2 2.3 2.0 2.5 2.7 3.2 2.9 3.2 4.2 5.0 5.8 7.3 7.1 6.5 6.1 4.2 4.2 4.4 5.2 5.5 4.4 4.2
3.0 2.3 2.4 3.2 3.5 2.6 2.9 4.4 4.5 5.4 5.6 6.9 7.6 6.3 6.0 4.3 5.0 5.2 4.8 5.1 5.1 4.4
2.6 2.9 2.3 2.3 3.4 3.5 3.6 4.3 4.7 5.5 5.9 6.2 7.0 7.0 5.5 5.2 5.4 5.5 5.0 5.0 5.4 5.4
3.1 2.8 3.1 3.2 3.5 3.1 3.9 4.6 5.6 6.0 6.1 6.0 6.1 6.4 5.5 5.3 5.3 5.4 5.1 5.6 5.4 5.1
2.9 2.9 3.0 3.2 3.0 3.6 4.6 5.3 5.7 6.3 6.5 6.2 6.0 5.7 6.3 5.9 7.1 6.6 6.4 6.1 5.9 5.8
3.3 2.8 3.0 2.7 3.0 3.8 4.7 5.3 6.2 6.1 6.8 6.9 5.8 6.0 6.3 6.4 6.8 6.5 6.2 5.9 5.5 5.4
3.3 3.0 3.3 2.8 3.4 4.2 5.2 5.7 5.9 5.8 6.4 6.6 5.8 6.0 6.0 6.1 5.4 5.3 5.8 5.5 5.2 5.0
3.7 3.9 4.2 4.1 4.4 5.1 5.6 5.8 6.5 6.7 6.1 5.8 6.1 6.8 5.4 5.5 5.5 5.4 4.7 4.2 4.7 5.3
4.8 4.9 4.2 4.3 4.9 5.3 5.7 5.8 5.9 6.2 6.5 6.2 6.8 5.2 6.1 5.1 5.1 4.5 3.9 3.5 3.8 4.4
5.5 5.7 5.7 5.8 5.5 5.5 5.2 5.5 6.0 6.2 6.7 6.9 5.5 4.1 4.9 4.9 3.8 3.6 3.4 3.2 3.7 4.3
5.6 6.5 6.2 5.7 6.0 5.9 4.9 5.1 5.3 6.7 6.2 6.1 6.2 3.9 3.7 3.3 3.6 3.6 3.8 3.8 3.8 3.5
6.1 6.4 5.9 6.2 5.7 5.7 5.0 5.1 5.4 6.5 5.9 6.8 5.4 4.9 3.3 3.9 4.3 4.2 3.5 2.9 2.8 2.5
5.8 6.1 6.4 5.5 5.3 4.9 4.4 5.2 5.8 5.9 5.3 5.3 4.6 1.8 2.5 3.8 4.3 4.0 3.5 2.7 2.9 3.9
4.6 5.2 6.5 5.0 5.4 4.7 4.9 5.3 5.1 5.4 4.9 4.6 3.3 2.8 2.6 2.5 4.0 3.9 4.1 3.9 3.4 3.7
Wind_Speed
8 6 6 6 5 5 4 5 7 7 6 3 5 5 8 4 3 4 1 3 4 2
7 7 6 6 5 5 7 5 7 8 5 5 2 6 7 4 3 2 3 4 1 1
5 5 6 6 6 8 6 6 6 6 6 4 3 1 5 4 3 3 2 3 2 2
5 7 6 5 5 6 6 7 6 6 6 5 4 3 4 4 5 4 4 2 3 5
7 8 6 6 5 6 6 3 6 5 5 5 5 4 3 4 3 3 2 3 3 5
7 8 7 7 7 7 6 5 4 6 4 3 6 5 4 3 2 2 3 4 5 6
8 8 7 7 7 7 7 7 5 5 6 5 6 6 6 6 6 4 4 4 4 6
8 8 8 7 7 7 7 7 6 6 5 5 5 4 6 5 4 3 5 6 6 6
9 10 8 8 7 7 7 6 5 6 6 6 4 8 5 6 3 4 5 6 7 7
12 10 9 9 8 7 7 5 3 2 4 4 5 10 8 7 4 5 6 7 6 8
12 10 7 6 7 6 5 6 4 4 2 1 2 10 10 9 3 4 7 7 7 5
13 13 11 9 7 5 5 4 4 3 4 3 5 3 4 4 2 5 5 4 7 7
13 11 13 9 7 5 4 4 4 4 5 7 5 6 9 5 2 1 2 2 4 7
11 8 9 8 5 6 5 5 4 5 3 6 6 6 7 5 1 1 2 2 4 3
Wind_Direction
145 150 153 166 171 169 159 156 156 153 140 125 92 135 120 119 147 140 67 14 26 8
149 146 161 164 136 118 133 154 161 147 137 129 65 142 143 136 149 164 172 236 309 3
159 158 151 141 132 132 148 150 144 138 140 150 168 188 124 155 199 187 214 172 219 276
157 133 136 139 127 135 124 136 148 158 164 172 177 146 127 170 225 220 223 279 246 265
152 139 147 157 137 130 135 154 177 180 170 171 150 157 178 226 309 186 307 283 282 285
155 145 163 167 151 145 157 193 212 158 156 176 159 167 220 237 274 289 267 278 285 279
163 157 168 165 156 161 182 199 194 184 189 196 178 184 212 222 239 256 267 280 286 289
153 157 160 161 165 180 191 204 200 183 203 194 178 206 216 222 218 245 290 299 298 286
150 162 169 165 176 185 205 213 200 198 192 198 205 161 156 158 241 271 273 284 284 273
163 171 181 174 173 186 191 182 189 180 204 208 196 189 194 212 214 249 270 266 262 274
163 169 170 173 184 185 174 174 181 209 219 209 246 201 214 226 261 290 285 295 279 116
172 170 163 186 188 185 163 173 184 195 205 225 239 310 158 152 276 295 3 24 95 116
173 165 180 164 181 182 161 177 180 212 209 214 194 174 161 168 208 338 139 112 116 160
159 150 179 160 153 174 173 168 205 213 246 232 169 193 191 213 201 169 331 171 210 212